Location: Grange Rosano
(44.4500°N, 6.9667°E)
Time: 21:20:12
(UTC+00:00)

Cosmos 839 Rocket - Pass Details

Date: 26 May 2022
Orbit: 968 x 2085 km, 65.9° (Epoch: 01 July)

Event Time Altitude Azimuth Distance (km) Brightness Sun altitude
Rises 00:35:56 0° 325° (NW) 3,696 7.6 -22.7°
Reaches altitude 10° 00:38:21 10° 324° (NW) 2,788 6.8 -22.6°
Maximum altitude 00:44:45 76° 240° (WSW) 1,148 4.2 -22.2°
Enters shadow 00:49:12 26° 159° (SSE) 2,172 5.4 -21.9°
